Location: Gollag?dem
(16.8053°N, 80.8024°E)
Time: 14:24:29
(UTC+00:00)

Cosmos 1140 Rocket - Pass Details

Date: 13 August 2020
Orbit: 745 x 767 km, 74.1° (Epoch: 25 September)

Event Time Altitude Azimuth Distance (km) Brightness Sun altitude
Rises 13:53:10 0° 190° (S) 3,211 6.6 -12.3°
Reaches altitude 10° 13:55:32 10° 189° (S) 2,289 5.9 -12.8°
Maximum altitude 14:00:44 79° 103° (ESE) 780 3.4 -14.0°
Drops below altitude 10° 14:05:57 10° 17° (NNE) 2,299 6.0 -15.2°
Sets 14:08:19 0° 16° (NNE) 3,227 6.8 -15.7°
